{"data":{"norad_id":56544,"epoch":"2026-05-24T17:10:51.924864Z","epoch_age_seconds":98761,"freshness":"FRESH","line1":"1 56544U 23065AT  26144.71587876 -.00000159  00000+0  37446-5 0  9990","line2":"2 56544  43.0004 153.8721 0001014 274.7887  85.2849 15.27577312168105","mean_motion":15.27577312,"eccentricity":0.0001014,"inclination_deg":43.0004,"raan_deg":153.8721,"arg_perigee_deg":274.7887,"mean_anomaly_deg":85.2849,"bstar":3.7446e-6,"rev_number":16810,"period_min":94.266914590049,"perigee_km":482.36141980417,"apogee_km":483.75286997675,"semimajor_km":6861.1941448905,"source":"CELESTRAK","updated_at":"2026-05-25T13:38:18.115215Z"}}